Change the Weather History Date:

Thursday, April 10, 2014

  Actual Average Record
Temperature  
Mean Temperature 46 °F -  
Max Temperature 72 °F 54 °F 72 °F (2014)
Min Temperature 21 °F 22 °F 3 °F (2011)
Degree Days  
Heating Degree Days 18    
Moisture  
Dew Point 0 °F    
Average Humidity 19    
Maximum Humidity 48    
Minimum Humidity 4    
Precipitation  
Precipitation 0.00 in - - ()
Sea Level Pressure  
Sea Level Pressure 30.05 in    
Wind  
Wind Speed 6 mph (SW)    
Max Wind Speed 18 mph    
Max Gust Speed 28 mph    
Visibility 10 miles    
Events      
Averages and records for this station are not official NWS values.
T = Trace of Precipitation, MM = Missing Value Source: NWS Daily Summary

Daily Weather History Graph

Daily Weather History Graph

Search for Another Location

Airport or City:

Trip Planner

Search our weather history database for the weather conditions in past years. The results will help you decide how hot, cold, wet, or windy it might be!

Date:

Astronomy

Apr. 10, 2014 Rise Set
Actual Time 6:02 AM MST 6:58 PM MST
Civil Twilight 5:36 AM MST 7:24 PM MST
Nautical Twilight 5:05 AM MST 7:55 PM MST
Astronomical Twilight 4:33 AM MST 8:27 PM MST
Moon 2:53 PM MST (4/10) 3:18 AM MST (4/10)
Length of Visible Light 13h 48m
Length of Day
12h 55m
Waxing Gibbous, 80% of the Moon is Illuminated
Apr 10
Waxing Gibbous
Apr 15
Full
Apr 22
Last Quarter
Apr 28
New
May 6
First Quarter

Hourly Weather History & Observations

Time (MST) Temp. Windchill Dew Point Humidity Pressure Visibility Wind Dir Wind Speed Gust Speed Precip Events Conditions
12:54 AM 30.9 °F 25.2 °F 1.9 °F 29% 30.06 in 10.0 mi ENE 5.8 mph - N/A   Clear
1:54 AM 28.0 °F 24.2 °F 3.0 °F 34% 30.06 in 10.0 mi ENE 3.5 mph - N/A   Clear
2:54 AM 24.1 °F - 3.0 °F 40% 30.06 in 10.0 mi Calm Calm - N/A   Clear
3:54 AM 23.0 °F - 3.0 °F 42% 30.05 in 10.0 mi Calm Calm - N/A   Clear
4:54 AM 21.0 °F - 3.9 °F 48% 30.07 in 10.0 mi Calm Calm - N/A   Clear
5:54 AM 21.9 °F - 5.0 °F 48% 30.09 in 10.0 mi Calm Calm - N/A   Clear
6:54 AM 23.0 °F - 6.1 °F 48% 30.11 in 10.0 mi Calm Calm - N/A   Clear
7:54 AM 44.1 °F - 10.9 °F 26% 30.07 in 10.0 mi Calm Calm - N/A   Clear
8:54 AM 60.1 °F - 8.1 °F 13% 30.06 in 10.0 mi SSW 8.1 mph - N/A   Clear
9:54 AM 64.0 °F - 7.0 °F 11% 30.08 in 10.0 mi WSW 12.7 mph - N/A   Clear
10:54 AM 68.0 °F - 1.9 °F 7% 30.06 in 10.0 mi SW 9.2 mph 24.2 mph N/A   Clear
11:54 AM 70.0 °F - -2.0 °F 6% 30.03 in 10.0 mi SW 15.0 mph 21.9 mph N/A   Clear
12:42 PM 72.0 °F - -2.0 °F 5% 30.19 in 10.0 mi SSW 17.3 mph 24.2 mph N/A   Clear
12:54 PM 72.0 °F - -0.9 °F 6% 30.01 in 10.0 mi SW 17.3 mph 25.3 mph N/A   Clear
1:54 PM 72.0 °F - -5.1 °F 5% 30.01 in 10.0 mi WSW 15.0 mph 27.6 mph N/A   Clear
2:54 PM 72.0 °F - -9.9 °F 4% 30.03 in 10.0 mi West 16.1 mph 25.3 mph N/A   Clear
3:54 PM 71.1 °F - -7.1 °F 4% 30.02 in 10.0 mi SW 15.0 mph - N/A   Clear
4:54 PM 71.1 °F - -7.1 °F 4% 30.01 in 10.0 mi SW 18.4 mph 27.6 mph N/A   Clear
5:54 PM 68.0 °F - -6.0 °F 5% 30.02 in 10.0 mi WSW 11.5 mph - N/A   Clear
6:54 PM 62.1 °F - -8.0 °F 6% 30.04 in 10.0 mi WSW 10.4 mph - N/A   Clear
7:54 PM 55.0 °F - -6.0 °F 8% 29.99 in 10.0 mi WSW 5.8 mph - N/A   Clear
8:54 PM 44.1 °F 40.8 °F 1.9 °F 17% 30.01 in 10.0 mi SW 5.8 mph - N/A   Clear
9:54 PM 37.0 °F - -0.0 °F 21% 30.02 in 10.0 mi Calm Calm - N/A   Clear
10:54 PM 35.1 °F - 1.0 °F 24% 30.01 in 10.0 mi Calm Calm - N/A   Clear
11:54 PM 34.0 °F 28.0 °F 1.9 °F 26% 30.02 in 10.0 mi NE 6.9 mph - N/A   Clear